[Iaude] MPEC D37: 2024 DD [a=1.92,e=0.56,i=8.3,H=27.9]

mpec at cfa.harvard.edu mpec at cfa.harvard.edu
Sat Feb 17 09:01:56 EST 2024


M.P.E.C. 2024-D37                             Issued 2024 February 17, 14:00 UT

     The Minor Planet Electronic Circulars contain information on unusual
         minor planets, routine data on comets and natural satellites,
         and occasional editorial announcements.  They are published
    on behalf of Division F of the International Astronomical Union by the
          Minor Planet Center, Smithsonian Astrophysical Observatory,
                          Cambridge, MA 02138, U.S.A.
			  
             Prepared using the Tamkin Foundation Computer Network

                              MPC at CFA.HARVARD.EDU
            URL https://www.minorplanetcenter.net/    ISSN 1523-6714

                                    2024 DD                                     


Observations:
     K24D00D*1C2024 02 16.30782210 46 27.152+45 02 56.40         21.24GVED037G96
     K24D00D 1C2024 02 16.31309110 46 31.876+45 01 23.56         20.98GVED037G96
     K24D00D 1C2024 02 16.31842810 46 36.602+44 59 50.24         21.28GVED037G96
     K24D00D 1C2024 02 16.32385010 46 41.480+44 58 15.38         21.13GVED037G96
     K24D00D  C2024 02 16.33861110 46 52.723+44 53 50.67         21.3 GVED037H01
     K24D00D  C2024 02 16.34160710 46 55.348+44 52 58.44         20.7 GVED037H01
     K24D00D  C2024 02 16.35681910 47 08.620+44 48 32.30         20.9 GVED037H01
     K24D00D  C2024 02 16.36042710 47 11.725+44 47 29.27         21.2 GVED037H01
     K24D00D KC2024 02 16.48411010 48 57.294+44 12 01.37         20.89GVED037I52
     K24D00D KC2024 02 16.48999810 49 02.248+44 10 20.60         21.31GVED037I52
     K24D00D KC2024 02 17.23691610 58 49.43 +41 20 38.6          22.1 GXED037858
     K24D00D KC2024 02 17.23805110 58 51.661+41 20 29.15         21.07GVED037I52
     K24D00D KC2024 02 17.24763410 58 56.309+41 18 46.22         21.79GVED037I52
     K24D00D KC2024 02 17.25254210 58 57.04 +41 17 48.6          21.8 GXED037858
     K24D00D KC2024 02 17.29196510 59 09.43 +41 10 26.9          21.8 GVED037H21
     K24D00D KC2024 02 17.30035310 59 13.28 +41 08 52.9          21.7 GVED037H21
     K24D00D KC2024 02 17.30314910 59 14.55 +41 08 21.7          21.8 GVED037H21

Observer details:
858 Tebbutt Observatory, Edgewood.  Observer F. B. Zoltowski.  0.51-m f/8.1
    Schmidt-Cassegrain + CCD.
G96 Mt. Lemmon Survey.  Observers V. F. Carvajal, J. K. Hogan.  Measurers T.
    Beuden, V. F. Carvajal, D. Fay, J. B. Fazekas, D. C. Fuls, A. R. Gibbs, A.
    D. Grauer, H. Groeller, J. K. Hogan, R. A. Kowalski, S. M. Larson, G. J.
    Leonard, D. Rankin, R. L. Seaman, F. C. Shelly, K. W. Wierzchos.  1.5-m
    reflector + 10K CCD.
H01 Magdalena Ridge Observatory, Socorro.  Observers W. H. Ryan, E. V. Ryan.
    Measurer W. H. Ryan.  2.4-m f/8.9 Ritchey-Chretien + CCD.
H21 Astronomical Research Observatory, Westfield.  Observer R. Holmes.
    Measurers T. Linder, R. Holmes, L. Horn.  0.76-m f/3.0 astrograph + CCD.
I52 Steward Observatory, Mt. Lemmon Station.  Observer J. B. Fazekas.
    Measurers E. C. Beshore, D. Fay, J. B. Fazekas, D. C. Fuls, A. R. Gibbs,
    A. D. Grauer, H. Groeller, J. K. Hogan, R. A. Kowalski, S. M. Larson, G.
    J. Leonard, D. Rankin, R. L. Seaman, F. C. Shelly, K. W. Wierzchos.  1.0-m
    prime focus + CCD.

Orbital elements:
2024 DD                                                  Earth MOID = 0.0044 AU
Epoch 2024 Mar. 31.0 TT = JDT 2460400.5                 Bell                    
M  31.26356              (2000.0)            P               Q                  
n   0.37097622     Peri.  308.91217     -0.00539634     -0.99585171             
a   1.9182506      Node   141.10259     +0.95641026     -0.03166111             
e   0.5591132      Incl.    8.31711     +0.29197653     +0.08530498             
P   2.66           H   27.94          G   0.15           U   7                  
Residuals in seconds of arc
240216 G96  0.1-  0.8+    240216 H01  0.4+  0.1-    240217 I52  0.2-  0.0
240216 G96  0.1-  0.2-    240216 H01  0.2+  0.1-    240217 858  0.2-  0.0
240216 G96  0.5-  0.4-    240216 I52  0.3-  0.0     240217 H21  0.1-  0.1+
240216 G96  0.3+  0.7-    240216 I52  0.0   0.1+    240217 H21  0.1+  0.0
240216 H01  0.1-  0.0     240217 858  0.4-  0.2-    240217 H21  0.0   0.1+
240216 H01  0.1-  0.1+    240217 I52  0.4+  0.8-

Ephemeris:
2024 DD                  a,e,i = 1.92, 0.56, 8                   q = 0.8457
Date    TT    R. A. (2000) Decl.     Delta      r    Elong.  Phase     V
2024 01 18    23 24 36.7 -25 17 25   0.2049  0.8598    47.8   122.0    29.2
...
2024 02 02    23 42 55.3 -22 14 49   0.08587 0.9200    38.8   137.8    29.0
...
2024 02 10    00 08 45.2 -09 03 47   0.02550 0.9670    38.9   140.1    26.8
...
2024 02 16    10 40 09.3 +46 41 01   0.02359 1.0071   144.7    34.5    21.2
2024 02 17    10 56 06.8 +42 08 31   0.03081 1.0141   147.7    31.4    21.8
2024 02 18    11 04 48.3 +39 15 42   0.03821 1.0212   149.4    29.5    22.2
...
2024 02 24    11 21 06.7 +32 33 09   0.08400 1.0655   153.9    24.1    23.8
...
2024 03 03    11 24 46.9 +29 42 23   0.1476  1.1279   156.1    20.8    25.1
...
2024 03 18    11 25 22.6 +26 36 15   0.2784  1.2508   153.6    20.7    26.7

M. P. C. Staff               (C) Copyright 2024 MPC           M.P.E.C. 2024-D37





More information about the Iaude mailing list